Location: Wildlife_Club
(35.6000°N, 81.4330°W)
Time: 01:24:31
(UTC-04:00)

A-11 Canister half - Pass Details

Date: 29 June 2019
Orbit: 1514 x 1686 km, 47.2° (Epoch: 12 October)

Event Time Altitude Azimuth Distance (km) Brightness Sun altitude
Rises 14:54:57 0° 301° (WNW) 4,863 11.8 67.7°
Reaches altitude 10° 14:58:13 10° 305° (NW) 3,853 11.4 67.1°
Maximum altitude 15:07:52 59° 24° (NNE) 1,784 10.1 65.3°
Drops below altitude 10° 15:17:08 10° 103° (ESE) 3,714 10.9 63.6°
Sets 15:20:13 0° 107° (ESE) 4,679 11.3 63.0°
